Location: ???????????
(41.2774°N, 22.8940°E)
Time: 00:05:42
(UTC+00:00)

Daily predictions for brighter satellites

Satellite Brightness Start Highest point End
(mag) Time Altitude Azimuth Time Altitude Azimuth Time Altitude Azimuth
CENTAUR R/B 4.4 01:57:12 23° NE 01:57:12 23° NE 01:59:41 10° NE
Cosmos 2344 4.3 02:24:43 39° N 02:24:43 39° N 02:29:36 10° NNE
USA 238 DEB 4.4 02:52:05 40° N 02:52:05 40° N 02:56:41 10° NNE
USA 238 4.3 02:52:10 40° N 02:52:10 40° N 02:56:48 10° NNE
Cosmos 2369 Rocket 2.7 02:52:23 53° NE 02:52:23 53° NE 02:56:39 10° NNE
Cosmos 2098 Rocket 4.5 02:51:52 37° E 02:51:52 37° E 02:56:23 10° NNE
Meteor 1-26 Rocket 4.3 02:55:35 77° ESE 02:55:35 77° ESE 03:01:02 10° SSE
Cosmos 1656 Rocket 4.0 02:56:23 53° SSE 02:57:16 61° ESE 03:02:38 10° NNE
USA 215 4.3 02:51:52 10° E 02:57:36 34° NNE 02:59:29 29° N
COSMO-SKYMED 1 4.3 02:59:43 10° SE 03:03:31 30° ENE 03:05:39 20° NNE
DELTA 2 R/B (1) 3.7 03:05:56 62° SSE 03:05:58 62° SSE 03:11:26 10° E
Cosmos 1943 Rocket 4.1 03:12:50 17° N 03:12:50 17° N 03:14:14 10° N
CZ-2C R/B 3.7 03:05:37 10° SE 03:10:46 44° ENE 03:15:51 10° N
H-2A R/B 4.1 03:11:50 34° SE 03:11:50 34° SE 03:14:29 10° S
Cosmos 1634 Rocket 3.9 03:13:25 20° N 03:18:01 88° W 03:24:14 10° S
TSX-5 4.3 03:32:15 61° WSW 03:32:22 61° WSW 03:36:44 10° S
SJ 16-02 3.4 03:29:45 10° SSE 03:33:31 29° E 03:37:18 10° NE
MOS 1-B Rocket 3.8 03:32:27 10° S 03:38:46 75° WSW 03:43:22 17° NNW
Cosmos 836 Rocket 4.4 03:40:51 41° NW 03:42:36 68° WSW 03:47:45 10° S
CENTAUR R/B 3.7 03:44:24 25° NNW 03:44:29 25° NNW 03:50:13 10° NNE
Cosmos 921 Rocket 4.1 03:51:57 29° SW 03:51:57 29° SW 03:54:48 10° SSW
Cosmos 2180 Rocket 4.5 03:44:47 10° N 03:50:59 82° E 03:57:06 10° S
CZ-4C R/B 3.8 03:48:05 10° SSE 03:51:05 44° ENE 03:52:58 19° N
SKYMED 2 3.4 03:47:06 10° S 03:51:26 80° WSW 03:54:15 22° NNW
CZ-2C R/B 4.4 03:48:28 10° NNE 03:53:07 40° E 03:57:58 10° SSE
CZ-3 R/B 4.3 03:44:04 10° SW 03:53:36 19° S 03:58:27 10° SE
SJ-12 4.0 03:51:50 10° N 03:55:53 53° WNW 03:59:54 10° SSW
ATLAS 5 CENTAUR R/B 1.8 03:52:53 10° SSW 03:56:34 59° ESE 04:00:38 10° NE
Cosmos 1503 Rocket 4.0 03:51:46 10° SSW 03:56:57 60° WNW 04:02:14 10° NNE
Meteor 1-27 Rocket 4.4 03:54:51 10° N 04:00:26 57° ENE 04:06:06 10° SSE
Cosmos 1777 Rocket 4.2 03:59:16 10° S 04:04:27 73° ESE 04:09:41 10° NNE
H-2A R/B 3.8 04:01:48 10° SE 04:05:35 31° ENE 04:09:27 10° N
CZ-4B R/B 4.0 04:02:28 10° NNE 04:05:51 39° E 04:09:16 10° S
Cosmos 1151 Rocket 3.5 04:05:32 33° WNW 04:06:27 37° W 04:10:28 10° SSW
SL-8 R/B 3.6 04:07:03 30° WNW 04:09:25 88° SSW 04:14:12 10° ESE
Cosmos 773 Rocket 4.0 04:04:57 10° NNW 04:10:11 82° ENE 04:15:21 10° SSE
Meteor 2-6 Rocket 4.2 04:05:33 10° NNW 04:10:45 50° W 04:15:56 10° SSW
Meteor PRIRODA 4.3 04:08:35 10° NNE 04:12:10 56° E 04:15:44 10° S
ATLAS 3B R/B 2.9 04:07:25 10° SSW 04:13:52 71° ESE 04:20:37 10° NE
DNEPR-1 R/B 4.3 04:11:35 25° NW 04:14:21 50° WSW 04:20:07 10° SSE
Cosmos 1812 4.3 04:16:30 18° WSW 04:16:30 18° WSW 04:18:09 10° SW
Okean 3 Rocket 4.2 04:12:19 10° SW 04:16:28 34° WNW 04:20:38 10° N
Cosmos 1340 Rocket 3.1 04:13:50 10° S 04:17:44 69° E 04:21:44 10° NNE
Cosmos 1766 Rocket 4.4 04:15:55 10° SW 04:19:37 27° WNW 04:23:20 10° NNW
Cosmos 1833 4.4 04:15:45 16° NW 04:20:09 51° WSW 04:25:40 10° S
DMSP B5D2-2 4.2 04:15:51 10° SSE 04:21:03 77° ENE 04:26:16 10° N
SL-27 R/B 2.3 04:21:23 15° NNW 04:24:17 76° WSW 04:27:47 10° SSE
BREEZE-M DEB (TANK) 4.4 04:21:03 20° W 04:24:35 52° SSW 04:44:30 10° SE
Envisat 3.6 04:20:10 10° N 04:24:42 34° WNW 04:29:14 10° SW
Cosmos 1328 Rocket 4.3 04:25:33 15° NW 04:28:25 30° W 04:32:13 10° SSW
Cosmos 2098 Rocket 4.5 04:32:19 18° W 04:33:11 18° WNW 04:36:38 10° NNW
Cosmos 2297 Rocket 4.1 04:28:47 10° N 04:33:31 26° NE 04:38:13 10° ESE
Cosmos 1174 3.3 04:32:18 10° SW 04:35:10 45° NW 04:38:08 10° NNE
Cosmos 2369 Rocket 3.5 04:34:16 16° WNW 04:35:42 18° NW 04:39:24 10° N
COSMO-SKYMED 1 3.7 04:36:12 10° SSW 04:39:40 23° W 04:42:51 11° NW
Cosmos 1939 Rocket 2.9 04:36:01 10° NNE 04:39:56 78° ESE 04:43:47 10° S
USA 215 3.3 04:33:34 10° SE 04:40:07 88° NE 04:46:41 10° NW
BREEZE-M DEB (TANK) 4.0 04:31:11 13° WNW 04:41:51 84° SW 04:45:27 10° SE
Meteor 2-15 Rocket 4.5 04:37:03 10° NNW 04:42:59 58° W 04:48:54 10° S
Meteor 1-31 Rocket 4.1 04:42:28 10° NNW 04:45:19 20° WNW 04:48:10 10° WSW
BREEZE-M DEB (TANK) 3.3 04:35:35 10° WSW 04:47:25 64° NNW 04:50:47 10° NE
SL-4 R/B 2.9 04:45:46 10° SSW 04:49:07 45° SE 04:52:41 10° ENE
Alouette 2 Rocket 3.1 04:45:37 10° NNW 04:49:15 80° W 04:52:57 10° S
IRAS Rocket 4.3 04:44:31 10° S 04:49:56 59° WSW 04:55:22 10° NNW
CZ-4B R/B 2.5 04:47:37 10° SSE 04:50:48 44° ENE 04:53:56 10° N
CZ-2C R/B 3.8 04:46:51 10° SSW 04:51:12 24° W 04:55:31 10° NW
Nadezhda 4 Rocket 4.2 04:45:37 10° SSW 04:51:32 48° WNW 04:57:33 10° N
Cosmos 1408 Rocket 4.5 04:48:29 10° SW 04:52:06 26° WNW 04:55:44 10° NNW
DELTA 2 R/B (1) 3.7 04:46:44 10° W 04:52:16 75° S 04:57:49 10° E
Okean 1 3.9 04:51:20 10° N 04:55:15 58° E 04:59:08 10° SSE
NOAA 12 4.1 04:53:48 10° N 04:58:59 61° WNW 05:04:08 10° SSW
FengYun 1-2 T 4.2 04:53:45 10° N 04:59:15 77° WNW 05:04:43 10° SSW
CZ-2D R/B 3.9 04:56:12 10° NNE 04:59:57 59° E 05:03:41 10° S
Geosat FO 4.5 04:58:02 10° SSE 05:01:22 81° ENE 05:04:41 10° NNW
Cosmos 1743 Rocket 4.0 04:57:41 10° SSW 05:01:46 38° WNW 05:05:53 10° N
Lacrosse 5 3.8 04:59:54 10° S 05:04:31 36° SE 05:09:09 10° ENE
Cosmos 2228 Rocket 3.1 05:01:32 10° NNW 05:06:01 66° W 05:10:30 10° S
CORIOLIS 4.3 05:00:35 10° NNE 05:06:04 88° ESE 05:11:30 10° SSW
Cosmos 1092 Rocket 4.1 05:02:54 10° SSW 05:09:02 60° W 05:15:18 10° N
Cosmos 1428 Rocket 4.5 05:02:56 10° SSW 05:09:03 69° W 05:15:09 10° N
Cosmos 2227 Rocket 3.6 05:04:20 10° N 05:09:29 35° ENE 05:14:36 10° ESE
